Hourly Data Report for April 28, 2020

TORONTO CITY
ONTARIO
Current Station Operator: ECCC - MSC

43°40'00.000" N
79°24'00.000" W
112.50 m
6158355
71508
XTO

Download Data

Hourly Data (April 2020)
Hourly Data Report for April 28, 2020
TIME
LST
Temp Definition
°C
Dew Point Definition
°C
Rel Hum Definition
%
Precip. Amount Definition
mm

Wind Dir Definition
10's deg

Wind Spd Definition
km/h
Visibility Definition
km
Stn Press Definition
kPa
Hmdx Definition


Wind Chill Definition


Weather Definition


00:00 8.9 -0.1 53 0.0       100.50     LegendNANA
01:00 8.7 0.0 54 0.0       100.49     LegendNANA
02:00 8.2 -0.2 55 0.0       100.47     LegendNANA
03:00 8.5 -0.8 52 0.0       100.46     LegendNANA
04:00 8.3 0.1 57 0.0       100.47     LegendNANA
05:00 8.3 1.5 62 0.0       100.44     LegendNANA
06:00 8.8 2.5 65 0.0       100.44     LegendNANA
07:00 7.9 2.2 68 0.0       100.49     LegendNANA
08:00 6.9 2.2 72 0.0       100.48     LegendNANA
09:00 7.7 2.0 67 0.0       100.44     LegendNANA
10:00 7.6 1.1 64 0.0       100.47     LegendNANA
11:00 8.0 1.1 62 0.0       100.46     LegendNANA
12:00 8.7 1.4 60 0.0       100.43     LegendNANA
13:00 9.5 -0.2 51 0.2       100.44     LegendNANA
14:00 8.9 0.5 56 0.2       100.41     LegendNANA
15:00 10.4 -0.1 48 0.0       100.40     LegendNANA
16:00 9.8 -0.5 48 0.2       100.38     LegendNANA
17:00 9.2 0.1 53 0.0       100.36     LegendNANA
18:00 9.1 -0.6 50 0.0       100.33     LegendNANA
19:00 9.0 -0.2 52 0.0       100.35     LegendNANA
20:00 9.5 -1.7 45 0.0       100.38     LegendNANA
21:00 9.4 -2.5 43 0.0       100.41     LegendNANA
22:00 8.9 -2.2 45 0.0       100.35     LegendNANA
23:00 8.9 -2.1 46 0.0       100.33     LegendNANA

Notes on Data Quality.

Legend

  • E = Estimated
  • M = Missing
  • NA = Not Available*
  • [empty] = Indicates an unobserved value
Date modified: